Location: Baia Mare
(47.6567°N, 23.5850°E)
Time: 17:56:58
(UTC+03:00)

ISS - Pass Details

Date: 02 November 2018
Orbit: 403 x 408 km, 51.6° (Epoch: 17 October)

Event Time Altitude Azimuth Distance (km) Brightness Sun altitude
Exits shadow 04:20:34 16° 80° (E) 1,143 -0.8 -29.0°
Drops below altitude 10° 04:21:24 10° 75° (ENE) 1,463 -0.1 -28.9°
Sets 04:23:33 0° 68° (ENE) 2,327 1.2 -28.5°
